Volver al catálogo

STARLINK-32836

ActivoComunicacionesVLEO
NORAD 62965·PAYLOAD·🇺🇸 United States

Lanzado Feb 11, 2025 desde Vandenberg Space Force Base

Loading…

Próximos Pases (próximas 24 horas)

TLE

ActualizadoSource: CelesTrak SupGP

Época: Sep 15, 2026, 02:12 UTC

1 62965C 25029T   26258.09215278 -.00025964  00000+0 -76715-3 0  2587
2 62965  53.1571  67.2721 0001132  86.4898 232.1156 15.34401566    13

Sigue STARLINK-32836 en tiempo real con AllMySat

Download on the App Store